RA02585 UWLL-UWLL

Flight info

Callsign RA02585
Flight time 0h 5m
Altitude 7000
Route DOGIT DCT TERDI TERDI1F
Aircraft DA42/L-SBDGRY/S

Departure

Time 2026-04-26 17:57
Airport Ulyanovsk Baratayevka Airport (UWLL)

Arrival

Time 2026-04-26 18:03
Airport Ulyanovsk Baratayevka Airport (UWLL)
Time Latitude Longitude Altitude Speed Heading
2026-04-26 17:48 54.26951 48.23304 461 ft 0 kts 300°
2026-04-26 17:53 54.26952 48.23301 461 ft 0 kts 297°
2026-04-26 17:54 54.27025 48.23012 461 ft 0 kts 264°
2026-04-26 17:54 54.27003 48.22978 461 ft 13 kts 212°
2026-04-26 17:54 54.26897 48.22854 461 ft 14 kts 238°
2026-04-26 17:54 54.26915 48.22825 461 ft 12 kts 349°
2026-04-26 17:55 54.27070 48.22755 461 ft 18 kts 343°
2026-04-26 17:55 54.27176 48.22718 461 ft 0 kts 343°
2026-04-26 17:55 54.27174 48.22725 461 ft 1 kts 195°
2026-04-26 17:55 54.27172 48.22724 461 ft 1 kts 195°
2026-04-26 17:56 54.27141 48.22686 461 ft 0 kts 217°
2026-04-26 17:56 54.27066 48.22589 461 ft 32 kts 212°
2026-04-26 17:57 54.26392 48.21750 771 ft 68 kts 212°
2026-04-26 17:57 54.26039 48.21088 929 ft 86 kts 253°
2026-04-26 17:57 54.26291 48.20121 1144 ft 98 kts 302°
2026-04-26 17:57 54.26704 48.19222 1427 ft 94 kts 301°
2026-04-26 17:58 54.28411 48.18821 1645 ft 119 kts 33°
2026-04-26 17:59 54.29327 48.19749 1536 ft 124 kts 32°
2026-04-26 17:59 54.30058 48.20495 1510 ft 118 kts 32°
2026-04-26 17:59 54.30735 48.21189 1503 ft 111 kts 31°
2026-04-26 17:59 54.31370 48.21878 1503 ft 100 kts 43°
2026-04-26 18:00 54.31547 48.22855 1405 ft 86 kts 115°
2026-04-26 18:00 54.31274 48.23768 1297 ft 86 kts 122°
2026-04-26 18:00 54.31031 48.24684 1235 ft 86 kts 121°
2026-04-26 18:00 54.30752 48.25507 1183 ft 76 kts 143°
2026-04-26 18:01 54.30258 48.25727 1100 ft 76 kts 179°
2026-04-26 18:01 54.29733 48.25509 918 ft 79 kts 209°
2026-04-26 18:01 54.29301 48.24978 777 ft 76 kts 204°
2026-04-26 18:01 54.28861 48.24527 647 ft 70 kts 208°
2026-04-26 18:02 54.28427 48.24061 549 ft 77 kts 207°
2026-04-26 18:02 54.28114 48.23732 469 ft 77 kts 212°
2026-04-26 18:02 54.27583 48.23154 461 ft 58 kts 213°
2026-04-26 18:02 54.27499 48.23061 461 ft 54 kts 207°
2026-04-26 18:03 54.27298 48.22856 461 ft 48 kts 211°
2026-04-26 18:03 54.27108 48.22642 461 ft 42 kts 213°
2026-04-26 18:03 54.26902 48.22419 461 ft 52 kts 211°
2026-04-26 18:04 54.26489 48.21965 588 ft 75 kts 213°
2026-04-26 18:04 54.26049 48.21455 795 ft 81 kts 215°
2026-04-26 18:04 54.25755 48.20608 957 ft 91 kts 275°
2026-04-26 18:05 54.26567 48.18839 1338 ft 100 kts 303°
2026-04-26 18:05 54.27055 48.17941 1464 ft 109 kts 334°
2026-04-26 18:05 54.27807 48.18127 1486 ft 119 kts 32°
2026-04-26 18:05 54.28521 48.18904 1498 ft 121 kts 33°
2026-04-26 18:06 54.29220 48.19700 1487 ft 122 kts 32°
2026-04-26 18:06 54.29925 48.20516 1452 ft 118 kts 32°
2026-04-26 18:06 54.30615 48.21271 1376 ft 116 kts 31°
2026-04-26 18:06 54.31266 48.21969 1352 ft 104 kts 30°
2026-04-26 18:07 54.31714 48.22687 1280 ft 87 kts 71°
2026-04-26 18:07 54.31572 48.23630 1140 ft 92 kts 120°
2026-04-26 18:07 54.31259 48.24572 1134 ft 88 kts 121°
2026-04-26 18:07 54.31064 48.25170 1077 ft 87 kts 124°
2026-04-26 18:08 54.30600 48.26093 956 ft 73 kts 172°
2026-04-26 18:08 54.30127 48.25919 893 ft 71 kts 213°
2026-04-26 18:08 54.29706 48.25433 810 ft 74 kts 210°
2026-04-26 18:08 54.29266 48.24964 712 ft 76 kts 209°
2026-04-26 18:09 54.28812 48.24485 606 ft 76 kts 212°
2026-04-26 18:09 54.28366 48.24004 511 ft 76 kts 213°
2026-04-26 18:09 54.27952 48.23552 461 ft 59 kts 211°
2026-04-26 18:09 54.27786 48.23376 461 ft 51 kts 214°
2026-04-26 18:10 54.27607 48.23173 461 ft 1 kts 222°
2026-04-26 18:10 54.27606 48.23172 461 ft 0 kts 216°
2026-04-26 18:10 54.27585 48.23156 461 ft 14 kts 207°
2026-04-26 18:10 54.27346 48.22894 463 ft 67 kts 210°
2026-04-26 18:11 54.26968 48.22377 671 ft 72 kts 213°
2026-04-26 18:11 54.26577 48.21794 843 ft 83 kts 214°
2026-04-26 18:11 54.26419 48.20798 1052 ft 103 kts 283°
2026-04-26 18:11 54.26846 48.19807 1339 ft 103 kts 301°
2026-04-26 18:12 54.27315 48.18815 1488 ft 114 kts 306°
2026-04-26 18:12 54.28102 48.18469 1470 ft 131 kts 20°
2026-04-26 18:12 54.28872 48.19190 1593 ft 124 kts 33°
2026-04-26 18:12 54.29654 48.19947 1506 ft 134 kts 32°
2026-04-26 18:13 54.30471 48.20775 1400 ft 133 kts 34°
2026-04-26 18:13 54.31234 48.21511 1378 ft 121 kts 31°
2026-04-26 18:13 54.31922 48.22163 1364 ft 103 kts 33°
2026-04-26 18:13 54.32283 48.22577 1284 ft 90 kts 57°
2026-04-26 18:14 54.32245 48.23796 1031 ft 77 kts 122°
2026-04-26 18:14 54.32051 48.24552 1029 ft 68 kts 122°
2026-04-26 18:14 54.31839 48.25368 1125 ft 79 kts 122°
2026-04-26 18:14 54.31623 48.26200 1182 ft 67 kts 122°
2026-04-26 18:15 54.31293 48.26700 1144 ft 65 kts 179°
2026-04-26 18:15 54.30848 48.26597 1114 ft 67 kts 192°
2026-04-26 18:15 54.30431 48.26194 1031 ft 68 kts 209°
2026-04-26 18:15 54.30045 48.25744 915 ft 65 kts 204°
2026-04-26 18:16 54.29658 48.25358 835 ft 63 kts 202°
2026-04-26 18:16 54.28869 48.24535 638 ft 68 kts 203°
2026-04-26 18:16 54.28466 48.24104 532 ft 67 kts 203°
2026-04-26 18:17 54.28089 48.23703 461 ft 57 kts 208°
2026-04-26 18:17 54.27798 48.23389 461 ft 41 kts 208°
2026-04-26 18:17 54.27701 48.23282 461 ft 0 kts 213°
2026-04-26 18:18 54.27612 48.23188 461 ft 40 kts 211°
2026-04-26 18:18 54.27247 48.22781 543 ft 73 kts 207°
2026-04-26 18:18 54.26853 48.22240 787 ft 72 kts 212°
2026-04-26 18:18 54.26447 48.21581 991 ft 87 kts 234°
2026-04-26 18:19 54.26558 48.20523 1197 ft 101 kts 300°
2026-04-26 18:19 54.27009 48.19582 1448 ft 98 kts 302°
2026-04-26 18:19 54.27518 48.18677 1539 ft 109 kts 326°
2026-04-26 18:19 54.28263 48.18703 1461 ft 116 kts 32°
2026-04-26 18:20 54.28970 48.19350 1447 ft 116 kts 31°
2026-04-26 18:20 54.29670 48.20005 1462 ft 113 kts 33°
2026-04-26 18:20 54.30345 48.20650 1407 ft 112 kts 34°
2026-04-26 18:20 54.30824 48.21111 1426 ft 115 kts 31°
2026-04-26 18:21 54.31749 48.21971 1390 ft 111 kts 31°
2026-04-26 18:21 54.32347 48.22576 1381 ft 95 kts 50°
2026-04-26 18:21 54.32422 48.23521 1322 ft 81 kts 126°
2026-04-26 18:21 54.32177 48.24401 1322 ft 83 kts 123°
2026-04-26 18:22 54.31932 48.25312 1282 ft 86 kts 123°
2026-04-26 18:22 54.31684 48.26248 1219 ft 81 kts 122°
2026-04-26 18:22 54.31340 48.26792 1133 ft 63 kts 174°
2026-04-26 18:22 54.30888 48.26669 1063 ft 70 kts 195°
2026-04-26 18:23 54.30443 48.26231 1000 ft 74 kts 208°
2026-04-26 18:23 54.30025 48.25742 953 ft 72 kts 206°
2026-04-26 18:23 54.29593 48.25308 841 ft 71 kts 205°
2026-04-26 18:23 54.29176 48.24865 719 ft 74 kts 205°
2026-04-26 18:24 54.28734 48.24393 596 ft 73 kts 204°
2026-04-26 18:24 54.28326 48.23957 489 ft 67 kts 202°
2026-04-26 18:24 54.27991 48.23593 461 ft 45 kts 207°
2026-04-26 18:24 54.27776 48.23368 461 ft 28 kts 208°
2026-04-26 18:25 54.27655 48.23241 461 ft 12 kts 221°
2026-04-26 18:25 54.27590 48.23165 461 ft 11 kts 213°
2026-04-26 18:25 54.27422 48.22982 461 ft 55 kts 211°
2026-04-26 18:25 54.27026 48.22538 607 ft 72 kts 207°
2026-04-26 18:26 54.26630 48.21989 813 ft 78 kts 213°
2026-04-26 18:26 54.26376 48.21084 1036 ft 99 kts 270°
2026-04-26 18:26 54.26742 48.20036 1295 ft 110 kts 301°
2026-04-26 18:26 54.27228 48.18955 1480 ft 117 kts 300°
2026-04-26 18:27 54.27934 48.18261 1554 ft 127 kts 356°
2026-04-26 18:27 54.28702 48.18865 1578 ft 122 kts 43°
2026-04-26 18:27 54.29433 48.19645 1531 ft 125 kts 31°
2026-04-26 18:27 54.30189 48.20375 1449 ft 125 kts 33°
2026-04-26 18:28 54.30945 48.21149 1340 ft 126 kts 34°
2026-04-26 18:28 54.31659 48.21860 1376 ft 117 kts 32°
2026-04-26 18:28 54.32267 48.22519 1402 ft 91 kts 60°
2026-04-26 18:28 54.32272 48.23436 1295 ft 77 kts 121°
2026-04-26 18:29 54.32068 48.24314 1234 ft 76 kts 121°
2026-04-26 18:29 54.31854 48.25149 1158 ft 79 kts 121°
2026-04-26 18:29 54.31649 48.25998 1133 ft 72 kts 124°
2026-04-26 18:29 54.31382 48.26733 1149 ft 73 kts 148°
2026-04-26 18:30 54.30901 48.26740 1144 ft 75 kts 198°
2026-04-26 18:30 54.30463 48.26204 1045 ft 76 kts 208°
2026-04-26 18:30 54.30043 48.25767 932 ft 69 kts 200°
2026-04-26 18:30 54.29601 48.25312 849 ft 76 kts 206°
2026-04-26 18:31 54.29137 48.24833 702 ft 77 kts 204°
2026-04-26 18:31 54.28699 48.24355 588 ft 73 kts 202°
2026-04-26 18:31 54.28278 48.23907 486 ft 69 kts 202°
2026-04-26 18:31 54.27918 48.23510 461 ft 49 kts 207°
2026-04-26 18:32 54.27712 48.23300 461 ft 20 kts 210°
2026-04-26 18:32 54.27628 48.23207 461 ft 9 kts 211°
2026-04-26 18:32 54.27529 48.23107 461 ft 27 kts 215°
2026-04-26 18:32 54.27398 48.22960 461 ft 17 kts 211°
2026-04-26 18:33 54.27312 48.22870 461 ft 10 kts 211°
2026-04-26 18:33 54.27243 48.22798 461 ft 10 kts 210°
2026-04-26 18:33 54.27152 48.22757 461 ft 16 kts 187°
2026-04-26 18:33 54.27058 48.22763 461 ft 11 kts 168°
2026-04-26 18:34 54.26974 48.22798 461 ft 11 kts 166°
2026-04-26 18:34 54.26905 48.22837 461 ft 2 kts 114°
2026-04-26 18:34 54.26904 48.22868 461 ft 1 kts 67°
2026-04-26 18:34 54.26973 48.22951 461 ft 22 kts 31°
2026-04-26 18:35 54.27008 48.23079 461 ft 7 kts 121°
2026-04-26 18:35 54.26956 48.23212 461 ft 0 kts 115°
2026-04-26 18:35 54.26955 48.23230 461 ft 9 kts 54°
2026-04-26 18:35 54.26983 48.23306 461 ft 3 kts 37°
2026-04-26 18:36 54.26992 48.23311 461 ft 0 kts 356°
2026-04-26 18:36 54.26995 48.23306 461 ft 0 kts 284°
2026-04-26 18:36 54.26996 48.23302 461 ft 0 kts 301°